N974MT NZQN-NZAR

Flight info

Callsign N974MT
Flight time N/A
Altitude 45000
Route SAVLA Y569 LOVTA Y655 POKOM Q277 DAVEE DCT REKIS
Aircraft C750/M-SBDE3FGHRWXY/S

Departure

Time 2026-04-30 06:09
Airport Queenstown Airport (NZQN)

Arrival

Time N/A
Airport Ardmore Airport (NZAR)
Time Latitude Longitude Altitude Speed Heading
2026-04-30 05:55 -45.02289 168.74233 1159 ft 0 kts 290°
2026-04-30 06:02 -45.02269 168.74217 1160 ft 9 kts 343°
2026-04-30 06:02 -45.02252 168.74214 1160 ft 13 kts 354°
2026-04-30 06:02 -45.02137 168.74164 1159 ft 2 kts 339°
2026-04-30 06:02 -45.02136 168.74164 1159 ft 0 kts 339°
2026-04-30 06:03 -45.02135 168.74162 1159 ft 2 kts 325°
2026-04-30 06:03 -45.02130 168.74163 1160 ft 0 kts 26°
2026-04-30 06:03 -45.02129 168.74177 1160 ft 4 kts 96°
2026-04-30 06:03 -45.02152 168.74244 1161 ft 8 kts 91°
2026-04-30 06:04 -45.02139 168.74299 1161 ft 7 kts 66°
2026-04-30 06:04 -45.02117 168.74359 1161 ft 2 kts 16°
2026-04-30 06:04 -45.02102 168.74357 1160 ft 4 kts 346°
2026-04-30 06:05 -45.01973 168.74308 1161 ft 2 kts 78°
2026-04-30 06:05 -45.01967 168.74347 1160 ft 6 kts 77°
2026-04-30 06:05 -45.01957 168.74414 1161 ft 9 kts 77°
2026-04-30 06:05 -45.01941 168.74512 1161 ft 12 kts 77°
2026-04-30 06:06 -45.01921 168.74638 1161 ft 15 kts 77°
2026-04-30 06:06 -45.01897 168.74793 1160 ft 17 kts 77°
2026-04-30 06:06 -45.01869 168.74971 1160 ft 20 kts 77°
2026-04-30 06:06 -45.01837 168.75174 1186 ft 22 kts 77°
2026-04-30 06:07 -45.01803 168.75391 1193 ft 23 kts 77°
2026-04-30 06:07 -45.01767 168.75615 1170 ft 24 kts 77°
2026-04-30 06:07 -45.01740 168.75710 1173 ft 0 kts 26°
2026-04-30 06:08 -45.01737 168.75710 1168 ft 4 kts 11°
2026-04-30 06:08 -45.01679 168.75661 1184 ft 16 kts 292°
2026-04-30 06:08 -45.01683 168.75597 1163 ft 0 kts 258°
2026-04-30 06:08 -45.01684 168.75592 1164 ft 4 kts 259°
2026-04-30 06:09 -45.01757 168.75114 1196 ft 107 kts 257°
2026-04-30 06:09 -45.01941 168.73880 1649 ft 125 kts 259°
2026-04-30 06:09 -45.02132 168.72599 2251 ft 145 kts 256°
2026-04-30 06:09 -45.02676 168.71240 2600 ft 177 kts 227°
2026-04-30 06:10 -45.03632 168.69946 3072 ft 203 kts 228°
2026-04-30 06:10 -45.04376 168.68139 3870 ft 214 kts 244°
2026-04-30 06:10 -45.05032 168.66267 5000 ft 214 kts 245°
2026-04-30 06:10 -45.05700 168.64364 5974 ft 217 kts 245°
2026-04-30 06:11 -45.06368 168.62465 6961 ft 220 kts 245°
2026-04-30 06:11 -45.07053 168.60518 7928 ft 222 kts 245°
2026-04-30 06:11 -45.07743 168.58554 8956 ft 226 kts 246°
2026-04-30 06:11 -45.08474 168.56460 9553 ft 250 kts 246°
2026-04-30 06:12 -45.09278 168.54164 10225 ft 265 kts 246°
2026-04-30 06:12 -45.10024 168.51761 10574 ft 276 kts 256°
2026-04-30 06:12 -45.10043 168.48973 10506 ft 294 kts 281°
2026-04-30 06:12 -45.09199 168.46377 10497 ft 287 kts 306°
2026-04-30 06:13 -45.07619 168.44542 10501 ft 303 kts 331°
2026-04-30 06:13 -45.05591 168.43893 10502 ft 308 kts 356°
2026-04-30 06:13 -45.03439 168.44038 10542 ft 311 kts
2026-04-30 06:13 -45.01274 168.44294 10516 ft 311 kts
2026-04-30 06:14 -44.99144 168.44836 10485 ft 316 kts 17°
2026-04-30 06:14 -44.97272 168.46488 10479 ft 322 kts 40°
2026-04-30 06:14 -44.95849 168.48945 10542 ft 324 kts 51°
2026-04-30 06:14 -44.94517 168.51501 10535 ft 323 kts 51°
2026-04-30 06:15 -44.93182 168.54047 10534 ft 323 kts 51°
2026-04-30 06:15 -44.91857 168.56545 10538 ft 322 kts 51°
2026-04-30 06:15 -44.90512 168.59080 10528 ft 322 kts 51°
2026-04-30 06:15 -44.89180 168.61614 10531 ft 322 kts 51°
2026-04-30 06:16 -44.87834 168.64149 10534 ft 323 kts 51°
2026-04-30 06:16 -44.86484 168.66684 10525 ft 322 kts 51°
2026-04-30 06:16 -44.85133 168.69216 10536 ft 323 kts 51°
2026-04-30 06:16 -44.83790 168.71749 10535 ft 323 kts 51°
2026-04-30 06:17 -44.82433 168.74319 11170 ft 324 kts 51°
2026-04-30 06:17 -44.81089 168.76846 12158 ft 323 kts 50°
2026-04-30 06:17 -44.79719 168.79411 12951 ft 328 kts 50°
2026-04-30 06:17 -44.78341 168.81992 13791 ft 331 kts 50°
2026-04-30 06:18 -44.76966 168.84563 14573 ft 335 kts 50°
2026-04-30 06:18 -44.75559 168.87196 15250 ft 339 kts 50°
2026-04-30 06:18 -44.74130 168.89870 15919 ft 343 kts 50°
2026-04-30 06:18 -44.72685 168.92563 16628 ft 347 kts 50°